PIMOHWEATHER Station Historical Data
Daily Summary for May 20, 2020 Units:  Metric    English   Both
Daily Weekly Monthly Yearly
  High: Low: Average:
Temperature: 37.0 °C 28.0 °C 32 °C
Dew Point: 29.0 °C 26.0 °C 27.1 °C
Humidity: 89% 60% 76%
Wind Speed: 20km/h 0km/h 8.6km/h
Wind Gust: 28km/h - -
Wind- - SSE
Pressure: 1008.8 hPa 1005.0 hPa -
Precipitation: 0.00 mm    
 
 
Tabular Data for May 20, 2020
Time Temperature Dew Point Pressure Wind Wind Speed Wind Gust Humidity Rainfall Rate (Hourly) solar
00:04 29.0 °C 27.0 °C 1007.2 hPa SE 7 km/h 8 km/h 85% 0.00 mm 0.00 W/m2
00:09 30.0 °C 27.0 °C 1006.9 hPa ESE 7 km/h 8 km/h 85% 0.00 mm 0.00 W/m2
00:14 30.0 °C 27.0 °C 1007.0 hPa ESE 12 km/h 16 km/h 85% 0.00 mm 0.00 W/m2
00:19 30.0 °C 27.0 °C 1006.9 hPa ESE 8 km/h 12 km/h 85% 0.00 mm 0.00 W/m2
00:24 30.0 °C 27.0 °C 1007.2 hPa SE 5 km/h 8 km/h 85% 0.00 mm 0.00 W/m2
00:29 30.0 °C 27.0 °C 1006.9 hPa SE 6 km/h 8 km/h 85% 0.00 mm 0.00 W/m2
00:34 29.0 °C 27.0 °C 1006.8 hPa SE 8 km/h 12 km/h 85% 0.00 mm 0.00 W/m2
00:39 30.0 °C 27.0 °C 1006.9 hPa ESE 8 km/h 12 km/h 85% 0.00 mm 0.00 W/m2
00:44 29.0 °C 27.0 °C 1006.8 hPa SE 8 km/h 12 km/h 85% 0.00 mm 0.00 W/m2
00:49 29.0 °C 27.0 °C 1006.7 hPa SE 12 km/h 16 km/h 85% 0.00 mm 0.00 W/m2
00:54 29.0 °C 27.0 °C 1006.9 hPa SE 9 km/h 12 km/h 85% 0.00 mm 0.00 W/m2
00:59 29.0 °C 27.0 °C 1006.8 hPa SE 7 km/h 8 km/h 85% 0.00 mm 0.00 W/m2
01:04 29.0 °C 27.0 °C 1006.9 hPa SE 8 km/h 12 km/h 86% 0.00 mm 0.00 W/m2
01:09 29.0 °C 27.0 °C 1006.8 hPa East 6 km/h 8 km/h 85% 0.00 mm 0.00 W/m2
01:14 29.0 °C 27.0 °C 1006.7 hPa SSE 3 km/h 4 km/h 85% 0.00 mm 0.00 W/m2
01:19 29.0 °C 27.0 °C 1006.5 hPa SE 5 km/h 8 km/h 85% 0.00 mm 0.00 W/m2
01:24 29.0 °C 27.0 °C 1006.4 hPa ESE 8 km/h 12 km/h 86% 0.00 mm 0.00 W/m2
01:29 29.0 °C 27.0 °C 1006.5 hPa SSE 4 km/h 4 km/h 86% 0.00 mm 0.00 W/m2
01:34 29.0 °C 27.0 °C 1006.4 hPa East 5 km/h 8 km/h 86% 0.00 mm 0.00 W/m2
01:39 30.0 °C 27.0 °C 1006.4 hPa SE 1 km/h 4 km/h 86% 0.00 mm 0.00 W/m2
01:44 29.0 °C 27.0 °C 1006.5 hPa ENE 4 km/h 4 km/h 87% 0.00 mm 0.00 W/m2
01:49 29.0 °C 27.0 °C 1006.5 hPa ENE 3 km/h 4 km/h 87% 0.00 mm 0.00 W/m2
01:54 29.0 °C 27.0 °C 1006.3 hPa SSE 3 km/h 4 km/h 87% 0.00 mm 0.00 W/m2
01:59 29.0 °C 27.0 °C 1006.2 hPa ESE 3 km/h 4 km/h 87% 0.00 mm 0.00 W/m2
02:04 29.0 °C 27.0 °C 1006.4 hPa Calm     87% 0.00 mm 0.00 W/m2
02:09 29.0 °C 27.0 °C 1006.4 hPa Calm     87% 0.00 mm 0.00 W/m2
02:14 29.0 °C 27.0 °C 1006.4 hPa Calm     87% 0.00 mm 0.00 W/m2
02:19 29.0 °C 27.0 °C 1006.4 hPa NNE 5 km/h 8 km/h 87% 0.00 mm 0.00 W/m2
02:24 29.0 °C 27.0 °C 1006.4 hPa NE 3 km/h 4 km/h 88% 0.00 mm 0.00 W/m2
02:29 29.0 °C 27.0 °C 1006.4 hPa Calm   4 km/h 88% 0.00 mm 0.00 W/m2
02:34 29.0 °C 27.0 °C 1006.3 hPa ESE 1 km/h 4 km/h 88% 0.00 mm 0.00 W/m2
02:39 29.0 °C 27.0 °C 1006.2 hPa SSE 1 km/h 4 km/h 88% 0.00 mm 0.00 W/m2
02:44 29.0 °C 27.0 °C 1006.2 hPa SE 3 km/h 4 km/h 88% 0.00 mm 0.00 W/m2
02:49 29.0 °C 27.0 °C 1006.3 hPa Calm     88% 0.00 mm 0.00 W/m2
02:54 29.0 °C 27.0 °C 1006.3 hPa NE 3 km/h 4 km/h 88% 0.00 mm 0.00 W/m2
02:59 29.0 °C 27.0 °C 1006.2 hPa Calm     88% 0.00 mm 0.00 W/m2
03:04 29.0 °C 27.0 °C 1006.2 hPa Calm     88% 0.00 mm 0.00 W/m2
03:09 29.0 °C 27.0 °C 1006.3 hPa North 6 km/h 12 km/h 88% 0.00 mm 0.00 W/m2
03:14 29.0 °C 27.0 °C 1006.5 hPa North 6 km/h 8 km/h 89% 0.00 mm 0.00 W/m2
03:19 29.0 °C 26.0 °C 1006.5 hPa North 5 km/h 8 km/h 89% 0.00 mm 0.00 W/m2
03:24 28.0 °C 26.0 °C 1006.4 hPa North 4 km/h 4 km/h 89% 0.00 mm 0.00 W/m2
03:29 28.0 °C 26.0 °C 1006.6 hPa Calm     89% 0.00 mm 0.00 W/m2
03:34 28.0 °C 26.0 °C 1006.6 hPa WNW 3 km/h 4 km/h 89% 0.00 mm 0.00 W/m2
03:39 28.0 °C 26.0 °C 1006.6 hPa Calm     89% 0.00 mm 0.00 W/m2
03:44 28.0 °C 26.0 °C 1006.4 hPa NW 6 km/h 8 km/h 89% 0.00 mm 0.00 W/m2
03:49 28.0 °C 26.0 °C 1006.4 hPa NNW 5 km/h 8 km/h 89% 0.00 mm 0.00 W/m2
03:54 28.0 °C 26.0 °C 1006.5 hPa NNE 4 km/h 4 km/h 89% 0.00 mm 0.00 W/m2
03:59 28.0 °C 26.0 °C 1006.7 hPa North 5 km/h 8 km/h 89% 0.00 mm 0.00 W/m2
04:04 28.0 °C 26.0 °C 1006.7 hPa North 5 km/h 8 km/h 89% 0.00 mm 0.00 W/m2
04:09 28.0 °C 26.0 °C 1006.5 hPa North 6 km/h 8 km/h 89% 0.00 mm 0.00 W/m2
04:14 28.0 °C 26.0 °C 1006.6 hPa NNE 8 km/h 8 km/h 88% 0.00 mm 0.00 W/m2
04:19 28.0 °C 26.0 °C 1006.5 hPa North 5 km/h 8 km/h 88% 0.00 mm 0.00 W/m2
04:24 28.0 °C 26.0 °C 1006.5 hPa Calm     88% 0.00 mm 0.00 W/m2
04:29 28.0 °C 26.0 °C 1006.6 hPa NNE 6 km/h 8 km/h 88% 0.00 mm 0.00 W/m2
04:34 28.0 °C 26.0 °C 1006.7 hPa Calm   4 km/h 88% 0.00 mm 0.00 W/m2
04:39 28.0 °C 26.0 °C 1006.7 hPa Calm     88% 0.00 mm 0.00 W/m2
04:44 28.0 °C 26.0 °C 1006.6 hPa Calm     87% 0.00 mm 0.00 W/m2
04:49 28.0 °C 26.0 °C 1006.6 hPa Calm     87% 0.00 mm 0.00 W/m2
04:54 28.0 °C 26.0 °C 1006.8 hPa Calm     87% 0.00 mm 0.00 W/m2
04:59 28.0 °C 26.0 °C 1006.7 hPa Calm     87% 0.00 mm 0.00 W/m2
05:04 28.0 °C 26.0 °C 1006.7 hPa East 1 km/h 4 km/h 87% 0.00 mm 0.00 W/m2
05:09 28.0 °C 26.0 °C 1006.8 hPa Calm     87% 0.00 mm 0.00 W/m2
05:14 28.0 °C 26.0 °C 1007.0 hPa Calm     87% 0.00 mm 0.00 W/m2
05:19 28.0 °C 26.0 °C 1007.1 hPa Calm     87% 0.00 mm 0.00 W/m2
05:24 28.0 °C 26.0 °C 1007.0 hPa Calm     87% 0.00 mm 0.00 W/m2
05:29 28.0 °C 26.0 °C 1007.2 hPa Calm     87% 0.00 mm 0.22 W/m2
05:34 28.0 °C 26.0 °C 1007.3 hPa Calm     87% 0.00 mm 2.99 W/m2
05:39 28.0 °C 26.0 °C 1007.3 hPa NNE 4 km/h 4 km/h 87% 0.00 mm 5.81 W/m2
05:44 28.0 °C 26.0 °C 1007.3 hPa North 6 km/h 8 km/h 87% 0.00 mm 9.95 W/m2
05:49 28.0 °C 26.0 °C 1007.6 hPa NNE 7 km/h 8 km/h 87% 0.00 mm 18.30 W/m2
05:54 28.0 °C 26.0 °C 1007.5 hPa North 9 km/h 12 km/h 86% 0.00 mm 26.79 W/m2
05:59 28.0 °C 26.0 °C 1007.5 hPa NNW 9 km/h 12 km/h 87% 0.00 mm 27.41 W/m2
06:04 28.0 °C 26.0 °C 1007.7 hPa NNE 12 km/h 16 km/h 86% 0.00 mm 29.42 W/m2
06:09 28.0 °C 26.0 °C 1007.7 hPa North 6 km/h 8 km/h 86% 0.00 mm 31.32 W/m2
06:14 28.0 °C 26.0 °C 1007.7 hPa North 9 km/h 12 km/h 86% 0.00 mm 34.59 W/m2
06:19 28.0 °C 26.0 °C 1008.1 hPa NNE 10 km/h 12 km/h 86% 0.00 mm 71.12 W/m2
06:24 28.0 °C 26.0 °C 1007.9 hPa North 8 km/h 12 km/h 86% 0.00 mm 72.44 W/m2
06:29 28.0 °C 26.0 °C 1008.1 hPa NNE 5 km/h 8 km/h 86% 0.00 mm 70.37 W/m2
06:34 28.0 °C 26.0 °C 1008.2 hPa NNE 7 km/h 8 km/h 85% 0.00 mm 46.39 W/m2
06:39 28.0 °C 26.0 °C 1008.2 hPa NNE 7 km/h 8 km/h 85% 0.00 mm 117.98 W/m2
06:44 29.0 °C 26.0 °C 1008.2 hPa North 6 km/h 8 km/h 85% 0.00 mm 172.93 W/m2
06:49 29.0 °C 26.0 °C 1008.2 hPa North 5 km/h 8 km/h 84% 0.00 mm 190.11 W/m2
06:54 30.0 °C 26.0 °C 1008.2 hPa SW 1 km/h 4 km/h 82% 0.00 mm 206.35 W/m2
06:59 31.0 °C 26.0 °C 1008.5 hPa NE 6 km/h 8 km/h 79% 0.00 mm 220.22 W/m2
07:04 31.0 °C 26.0 °C 1008.1 hPa NE 7 km/h 8 km/h 79% 0.00 mm 227.20 W/m2
07:09 31.0 °C 26.0 °C 1008.5 hPa NNE 6 km/h 12 km/h 79% 0.00 mm 239.97 W/m2
07:14 31.0 °C 27.0 °C 1008.3 hPa NNE 6 km/h 8 km/h 80% 0.00 mm 248.73 W/m2
07:19 31.0 °C 27.0 °C 1008.3 hPa SE 4 km/h 8 km/h 79% 0.00 mm 252.94 W/m2
07:24 32.0 °C 27.0 °C 1008.5 hPa ENE 3 km/h 4 km/h 79% 0.00 mm 262.65 W/m2
07:29 32.0 °C 27.0 °C 1008.5 hPa NE 5 km/h 8 km/h 76% 0.00 mm 278.36 W/m2
07:34 32.0 °C 27.0 °C 1008.5 hPa SE 6 km/h 8 km/h 77% 0.00 mm 285.01 W/m2
07:39 32.0 °C 27.0 °C 1008.5 hPa ESE 8 km/h 12 km/h 76% 0.00 mm 295.12 W/m2
07:44 32.0 °C 27.0 °C 1008.4 hPa ESE 8 km/h 12 km/h 76% 0.00 mm 311.59 W/m2
07:49 32.0 °C 27.0 °C 1008.6 hPa ESE 8 km/h 8 km/h 75% 0.00 mm 320.93 W/m2
07:54 33.0 °C 27.0 °C 1008.5 hPa East 5 km/h 8 km/h 74% 0.00 mm 328.71 W/m2
07:59 33.0 °C 27.0 °C 1008.5 hPa SE 10 km/h 12 km/h 74% 0.00 mm 336.44 W/m2
08:04 32.0 °C 27.0 °C 1008.5 hPa SE 12 km/h 16 km/h 76% 0.00 mm 336.40 W/m2
08:09 33.0 °C 27.0 °C 1008.6 hPa ESE 10 km/h 12 km/h 76% 0.00 mm 344.89 W/m2
08:14 33.0 °C 27.0 °C 1008.6 hPa SSE 7 km/h 8 km/h 73% 0.00 mm 366.56 W/m2
08:19 33.0 °C 27.0 °C 1008.4 hPa ESE 8 km/h 12 km/h 72% 0.00 mm 360.84 W/m2
08:24 34.0 °C 27.0 °C 1008.6 hPa ESE 10 km/h 16 km/h 72% 0.00 mm 373.68 W/m2
08:29 33.0 °C 27.0 °C 1008.8 hPa SE 10 km/h 16 km/h 72% 0.00 mm 374.76 W/m2
08:34 33.0 °C 27.0 °C 1008.6 hPa SE 8 km/h 12 km/h 71% 0.00 mm 394.90 W/m2
08:39 34.0 °C 27.0 °C 1008.7 hPa ESE 9 km/h 12 km/h 70% 0.00 mm 392.74 W/m2
08:44 34.0 °C 27.0 °C 1008.6 hPa SE 8 km/h 8 km/h 70% 0.00 mm 415.91 W/m2
08:49 34.0 °C 27.0 °C 1008.5 hPa SE 10 km/h 12 km/h 69% 0.00 mm 419.34 W/m2
08:54 33.0 °C 27.0 °C 1008.5 hPa SSE 12 km/h 16 km/h 71% 0.00 mm 420.10 W/m2
08:59 33.0 °C 27.0 °C 1008.4 hPa SSE 9 km/h 12 km/h 71% 0.00 mm 264.44 W/m2
09:04 33.0 °C 27.0 °C 1008.4 hPa SSE 8 km/h 12 km/h 71% 0.00 mm 404.63 W/m2
09:09 33.0 °C 27.0 °C 1008.3 hPa SSE 8 km/h 8 km/h 71% 0.00 mm 173.00 W/m2
09:14 33.0 °C 27.0 °C 1008.3 hPa SSE 6 km/h 8 km/h 70% 0.00 mm 469.72 W/m2
09:19 34.0 °C 28.0 °C 1008.4 hPa South 10 km/h 12 km/h 73% 0.00 mm 479.99 W/m2
09:24 33.0 °C 28.0 °C 1008.3 hPa South 11 km/h 16 km/h 74% 0.00 mm 489.39 W/m2
09:29 34.0 °C 28.0 °C 1008.3 hPa SSW 11 km/h 16 km/h 73% 0.00 mm 446.30 W/m2
09:34 33.0 °C 28.0 °C 1008.2 hPa SW 13 km/h 16 km/h 75% 0.00 mm 448.65 W/m2
09:39 33.0 °C 28.0 °C 1008.3 hPa NW 11 km/h 16 km/h 76% 0.00 mm 460.25 W/m2
09:44 33.0 °C 28.0 °C 1008.1 hPa WNW 11 km/h 16 km/h 76% 0.00 mm 461.96 W/m2
09:49 33.0 °C 28.0 °C 1008.2 hPa South 10 km/h 12 km/h 75% 0.00 mm 471.26 W/m2
09:54 33.0 °C 28.0 °C 1008.0 hPa WSW 9 km/h 12 km/h 73% 0.00 mm 457.63 W/m2
09:59 34.0 °C 28.0 °C 1008.0 hPa South 12 km/h 16 km/h 73% 0.00 mm 464.51 W/m2
10:04 33.0 °C 28.0 °C 1008.0 hPa South 9 km/h 12 km/h 73% 0.00 mm 472.26 W/m2
10:09 34.0 °C 28.0 °C 1008.0 hPa South 13 km/h 16 km/h 72% 0.00 mm 461.67 W/m2
10:14 34.0 °C 28.0 °C 1008.1 hPa SW 9 km/h 16 km/h 72% 0.00 mm 465.70 W/m2
10:19 34.0 °C 28.0 °C 1008.1 hPa WNW 10 km/h 16 km/h 72% 0.00 mm 458.78 W/m2
10:24 34.0 °C 28.0 °C 1008.2 hPa West 10 km/h 12 km/h 72% 0.00 mm 459.71 W/m2
10:29 34.0 °C 28.0 °C 1008.0 hPa WNW 9 km/h 12 km/h 73% 0.00 mm 482.29 W/m2
10:34 34.0 °C 28.0 °C 1008.0 hPa SSW 8 km/h 12 km/h 73% 0.00 mm 482.61 W/m2
10:39 34.0 °C 28.0 °C 1007.9 hPa SSW 7 km/h 8 km/h 72% 0.00 mm 496.44 W/m2
10:44 34.0 °C 28.0 °C 1007.8 hPa West 11 km/h 12 km/h 71% 0.00 mm 518.85 W/m2
10:49 34.0 °C 28.0 °C 1007.8 hPa South 13 km/h 16 km/h 71% 0.00 mm 451.37 W/m2
10:54 34.0 °C 28.0 °C 1007.7 hPa SSW 12 km/h 12 km/h 72% 0.00 mm 472.36 W/m2
10:59 34.0 °C 28.0 °C 1007.6 hPa SSW 11 km/h 16 km/h 73% 0.00 mm 210.58 W/m2
11:04 33.0 °C 28.0 °C 1007.5 hPa North 10 km/h 16 km/h 74% 0.00 mm 425.51 W/m2
11:09 34.0 °C 28.0 °C 1007.5 hPa SW 11 km/h 16 km/h 74% 0.00 mm 513.93 W/m2
11:14 35.0 °C 29.0 °C 1007.2 hPa South 10 km/h 12 km/h 72% 0.00 mm 530.08 W/m2
11:19 35.0 °C 28.0 °C 1007.1 hPa WSW 10 km/h 16 km/h 71% 0.00 mm 538.98 W/m2
11:24 34.0 °C 28.0 °C 1007.1 hPa South 12 km/h 20 km/h 73% 0.00 mm 484.72 W/m2
11:29 35.0 °C 28.0 °C 1007.3 hPa SE 8 km/h 12 km/h 72% 0.00 mm 533.19 W/m2
11:34 35.0 °C 28.0 °C 1007.1 hPa South 11 km/h 16 km/h 68% 0.00 mm 536.49 W/m2
11:39 35.0 °C 28.0 °C 1006.9 hPa SSE 18 km/h 20 km/h 67% 0.00 mm 538.42 W/m2
11:44 35.0 °C 28.0 °C 1006.9 hPa South 15 km/h 24 km/h 67% 0.00 mm 530.96 W/m2
11:49 35.0 °C 28.0 °C 1006.9 hPa SE 16 km/h 20 km/h 68% 0.00 mm 538.54 W/m2
11:54 35.0 °C 28.0 °C 1006.9 hPa South 10 km/h 12 km/h 68% 0.00 mm 541.09 W/m2
11:59 36.0 °C 28.0 °C 1006.8 hPa SW 10 km/h 12 km/h 66% 0.00 mm 531.08 W/m2
12:04 36.0 °C 29.0 °C 1006.7 hPa South 12 km/h 16 km/h 65% 0.00 mm 540.99 W/m2
12:09 36.0 °C 29.0 °C 1006.5 hPa South 10 km/h 12 km/h 65% 0.00 mm 536.98 W/m2
12:14 36.0 °C 29.0 °C 1006.5 hPa South 17 km/h 24 km/h 66% 0.00 mm 539.67 W/m2
12:19 36.0 °C 28.0 °C 1006.5 hPa South 17 km/h 20 km/h 68% 0.00 mm 548.72 W/m2
12:24 35.0 °C 28.0 °C 1006.5 hPa SSW 13 km/h 16 km/h 68% 0.00 mm 551.88 W/m2
12:29 36.0 °C 29.0 °C 1006.5 hPa South 9 km/h 12 km/h 67% 0.00 mm 563.08 W/m2
12:34 37.0 °C 29.0 °C 1006.5 hPa SSW 9 km/h 12 km/h 66% 0.00 mm 564.33 W/m2
12:39 37.0 °C 29.0 °C 1006.6 hPa SSW 8 km/h 12 km/h 64% 0.00 mm 565.12 W/m2
12:44 37.0 °C 29.0 °C 1006.5 hPa WSW 7 km/h 12 km/h 64% 0.00 mm 558.09 W/m2
12:49 36.0 °C 29.0 °C 1006.5 hPa South 12 km/h 16 km/h 66% 0.00 mm 545.54 W/m2
12:54 36.0 °C 29.0 °C 1006.4 hPa SW 9 km/h 12 km/h 66% 0.00 mm 559.22 W/m2
12:59 36.0 °C 28.0 °C 1006.3 hPa West 15 km/h 20 km/h 66% 0.00 mm 557.55 W/m2
13:04 36.0 °C 28.0 °C 1006.2 hPa South 12 km/h 16 km/h 66% 0.00 mm 554.64 W/m2
13:09 37.0 °C 29.0 °C 1006.3 hPa SSW 10 km/h 16 km/h 65% 0.00 mm 577.79 W/m2
13:14 37.0 °C 29.0 °C 1006.1 hPa South 19 km/h 24 km/h 66% 0.00 mm 577.50 W/m2
13:19 36.0 °C 28.0 °C 1005.8 hPa South 20 km/h 28 km/h 67% 0.00 mm 564.31 W/m2
13:24 37.0 °C 29.0 °C 1005.9 hPa SSE 16 km/h 20 km/h 66% 0.00 mm 556.92 W/m2
13:29 37.0 °C 29.0 °C 1005.7 hPa ENE 10 km/h 16 km/h 64% 0.00 mm 566.85 W/m2
13:34 37.0 °C 29.0 °C 1005.5 hPa SW 12 km/h 16 km/h 65% 0.00 mm 571.70 W/m2
13:39 37.0 °C 29.0 °C 1005.8 hPa SW 15 km/h 20 km/h 64% 0.00 mm 572.65 W/m2
13:44 37.0 °C 29.0 °C 1005.8 hPa SSW 13 km/h 20 km/h 65% 0.00 mm 569.18 W/m2
13:49 36.0 °C 28.0 °C 1005.7 hPa South 18 km/h 20 km/h 65% 0.00 mm 565.75 W/m2
13:54 36.0 °C 28.0 °C 1005.6 hPa SSW 13 km/h 20 km/h 66% 0.00 mm 566.24 W/m2
13:59 36.0 °C 28.0 °C 1005.5 hPa SSE 14 km/h 20 km/h 66% 0.00 mm 565.41 W/m2
14:04 37.0 °C 29.0 °C 1005.4 hPa WSW 15 km/h 20 km/h 65% 0.00 mm 565.60 W/m2
14:09 37.0 °C 29.0 °C 1005.4 hPa SW 15 km/h 20 km/h 67% 0.00 mm 484.06 W/m2
14:14 36.0 °C 28.0 °C 1005.4 hPa South 14 km/h 20 km/h 67% 0.00 mm 504.19 W/m2
14:19 35.0 °C 29.0 °C 1005.5 hPa South 16 km/h 20 km/h 70% 0.00 mm 488.17 W/m2
14:24 35.0 °C 29.0 °C 1005.3 hPa South 13 km/h 16 km/h 70% 0.00 mm 479.26 W/m2
14:29 36.0 °C 29.0 °C 1005.5 hPa WSW 7 km/h 12 km/h 69% 0.00 mm 517.38 W/m2
14:34 36.0 °C 29.0 °C 1005.2 hPa SSW 17 km/h 24 km/h 67% 0.00 mm 529.76 W/m2
14:39 36.0 °C 28.0 °C 1005.2 hPa SSW 17 km/h 20 km/h 65% 0.00 mm 518.68 W/m2
14:44 36.0 °C 28.0 °C 1005.2 hPa SSW 19 km/h 20 km/h 67% 0.00 mm 516.55 W/m2
14:49 36.0 °C 28.0 °C 1005.5 hPa SSW 12 km/h 16 km/h 64% 0.00 mm 518.51 W/m2
14:54 37.0 °C 28.0 °C 1005.5 hPa SSW 15 km/h 20 km/h 63% 0.00 mm 518.51 W/m2
14:59 36.0 °C 27.0 °C 1005.4 hPa SSW 16 km/h 20 km/h 64% 0.00 mm 502.87 W/m2
15:04 36.0 °C 27.0 °C 1005.5 hPa SSW 16 km/h 20 km/h 62% 0.00 mm 496.97 W/m2
15:09 36.0 °C 27.0 °C 1005.4 hPa South 16 km/h 20 km/h 63% 0.00 mm 489.78 W/m2
15:14 35.0 °C 27.0 °C 1005.3 hPa SSE 13 km/h 20 km/h 63% 0.00 mm 483.42 W/m2
15:19 35.0 °C 27.0 °C 1005.2 hPa SSW 18 km/h 24 km/h 63% 0.00 mm 463.63 W/m2
15:24 36.0 °C 27.0 °C 1005.3 hPa SSW 17 km/h 20 km/h 63% 0.00 mm 467.91 W/m2
15:29 36.0 °C 27.0 °C 1005.2 hPa SSW 10 km/h 12 km/h 63% 0.00 mm 458.73 W/m2
15:34 36.0 °C 27.0 °C 1005.2 hPa WNW 10 km/h 12 km/h 60% 0.00 mm 448.68 W/m2
15:39 36.0 °C 27.0 °C 1005.1 hPa SSW 10 km/h 12 km/h 60% 0.00 mm 388.24 W/m2
15:44 36.0 °C 27.0 °C 1005.1 hPa SW 9 km/h 12 km/h 61% 0.00 mm 287.93 W/m2
15:49 36.0 °C 27.0 °C 1005.1 hPa South 9 km/h 12 km/h 60% 0.00 mm 265.78 W/m2
15:54 36.0 °C 27.0 °C 1005.1 hPa South 12 km/h 16 km/h 64% 0.00 mm 167.35 W/m2
15:59 35.0 °C 27.0 °C 1005.3 hPa South 12 km/h 16 km/h 65% 0.00 mm 140.05 W/m2
16:04 34.0 °C 26.0 °C 1005.3 hPa South 17 km/h 20 km/h 66% 0.00 mm 118.91 W/m2
16:09 34.0 °C 26.0 °C 1005.3 hPa SSW 16 km/h 20 km/h 67% 0.00 mm 104.25 W/m2
16:14 34.0 °C 27.0 °C 1005.3 hPa South 15 km/h 20 km/h 67% 0.00 mm 100.14 W/m2
16:19 33.0 °C 27.0 °C 1005.2 hPa South 13 km/h 16 km/h 68% 0.00 mm 106.97 W/m2
16:24 33.0 °C 27.0 °C 1005.2 hPa SSW 14 km/h 16 km/h 68% 0.00 mm 122.43 W/m2
16:29 34.0 °C 27.0 °C 1005.2 hPa South 12 km/h 16 km/h 69% 0.00 mm 138.14 W/m2
16:34 33.0 °C 27.0 °C 1005.2 hPa South 16 km/h 20 km/h 69% 0.00 mm 163.85 W/m2
16:39 33.0 °C 27.0 °C 1005.1 hPa South 14 km/h 20 km/h 70% 0.00 mm 180.83 W/m2
16:44 34.0 °C 27.0 °C 1005.0 hPa South 14 km/h 16 km/h 70% 0.00 mm 260.79 W/m2
16:49 34.0 °C 27.0 °C 1005.2 hPa South 10 km/h 16 km/h 70% 0.00 mm 342.00 W/m2
16:54 34.0 °C 27.0 °C 1005.2 hPa South 10 km/h 16 km/h 68% 0.00 mm 344.45 W/m2
16:59 34.0 °C 27.0 °C 1005.2 hPa South 14 km/h 20 km/h 68% 0.00 mm 331.84 W/m2
17:04 34.0 °C 27.0 °C 1005.4 hPa South 16 km/h 20 km/h 69% 0.00 mm 307.67 W/m2
17:09 34.0 °C 28.0 °C 1005.4 hPa SSE 17 km/h 20 km/h 70% 0.00 mm 254.06 W/m2
17:14 34.0 °C 27.0 °C 1005.4 hPa South 13 km/h 16 km/h 70% 0.00 mm 207.62 W/m2
17:19 34.0 °C 27.0 °C 1005.4 hPa South 12 km/h 16 km/h 69% 0.00 mm 179.61 W/m2
17:24 34.0 °C 27.0 °C 1005.5 hPa South 14 km/h 16 km/h 69% 0.00 mm 74.07 W/m2
17:29 33.0 °C 27.0 °C 1005.6 hPa South 16 km/h 20 km/h 69% 0.00 mm 57.11 W/m2
17:34 33.0 °C 27.0 °C 1005.5 hPa SSW 17 km/h 20 km/h 69% 0.00 mm 57.25 W/m2
17:39 33.0 °C 27.0 °C 1005.7 hPa South 10 km/h 12 km/h 69% 0.00 mm 57.17 W/m2
17:44 33.0 °C 27.0 °C 1005.8 hPa SSE 10 km/h 12 km/h 70% 0.00 mm 125.76 W/m2
17:49 33.0 °C 27.0 °C 1005.8 hPa SSE 7 km/h 8 km/h 70% 0.00 mm 124.70 W/m2
17:54 33.0 °C 27.0 °C 1005.8 hPa SSE 14 km/h 16 km/h 71% 0.00 mm 50.92 W/m2
17:59 33.0 °C 27.0 °C 1006.0 hPa SSE 14 km/h 16 km/h 71% 0.00 mm 27.03 W/m2
18:04 33.0 °C 27.0 °C 1005.8 hPa SSE 13 km/h 16 km/h 72% 0.00 mm 19.67 W/m2
18:09 32.0 °C 27.0 °C 1005.9 hPa SSE 11 km/h 12 km/h 73% 0.00 mm 12.91 W/m2
18:14 32.0 °C 27.0 °C 1005.8 hPa SSE 14 km/h 16 km/h 73% 0.00 mm 7.26 W/m2
18:19 32.0 °C 27.0 °C 1005.9 hPa SSE 16 km/h 20 km/h 74% 0.00 mm 2.37 W/m2
18:24 32.0 °C 27.0 °C 1005.8 hPa SSE 10 km/h 12 km/h 74% 0.00 mm 0.00 W/m2
18:29 32.0 °C 27.0 °C 1006.0 hPa South 9 km/h 12 km/h 75% 0.00 mm 0.00 W/m2
18:34 32.0 °C 27.0 °C 1006.1 hPa South 13 km/h 16 km/h 74% 0.00 mm 0.00 W/m2
18:39 32.0 °C 27.0 °C 1006.3 hPa South 9 km/h 12 km/h 75% 0.00 mm 0.00 W/m2
18:44 32.0 °C 27.0 °C 1006.4 hPa SSE 17 km/h 20 km/h 75% 0.00 mm 0.00 W/m2
18:49 32.0 °C 27.0 °C 1006.4 hPa South 13 km/h 16 km/h 75% 0.00 mm 0.00 W/m2
18:54 32.0 °C 27.0 °C 1006.3 hPa SSE 11 km/h 16 km/h 76% 0.00 mm 0.00 W/m2
18:59 32.0 °C 27.0 °C 1006.6 hPa South 10 km/h 12 km/h 76% 0.00 mm 0.00 W/m2
19:04 32.0 °C 27.0 °C 1006.8 hPa SSE 9 km/h 12 km/h 76% 0.00 mm 0.00 W/m2
19:09 32.0 °C 27.0 °C 1006.5 hPa SSE 9 km/h 12 km/h 76% 0.00 mm 0.00 W/m2
19:14 32.0 °C 27.0 °C 1006.6 hPa South 9 km/h 12 km/h 76% 0.00 mm 0.00 W/m2
19:19 32.0 °C 27.0 °C 1006.7 hPa SSW 7 km/h 8 km/h 75% 0.00 mm 0.00 W/m2
19:24 32.0 °C 27.0 °C 1006.8 hPa SSE 7 km/h 8 km/h 76% 0.00 mm 0.00 W/m2
19:29 32.0 °C 27.0 °C 1006.9 hPa South 8 km/h 12 km/h 75% 0.00 mm 0.00 W/m2
19:34 32.0 °C 27.0 °C 1006.9 hPa South 8 km/h 12 km/h 75% 0.00 mm 0.00 W/m2
19:39 32.0 °C 27.0 °C 1007.1 hPa SSW 10 km/h 12 km/h 75% 0.00 mm 0.00 W/m2
19:44 32.0 °C 27.0 °C 1007.2 hPa South 9 km/h 12 km/h 75% 0.00 mm 0.00 W/m2
19:49 32.0 °C 27.0 °C 1007.2 hPa South 6 km/h 8 km/h 75% 0.00 mm 0.00 W/m2
19:54 32.0 °C 27.0 °C 1007.3 hPa South 4 km/h 8 km/h 75% 0.00 mm 0.00 W/m2
19:59 32.0 °C 27.0 °C 1007.3 hPa SSE 5 km/h 8 km/h 74% 0.00 mm 0.00 W/m2
20:04 32.0 °C 27.0 °C 1007.4 hPa SSE 6 km/h 8 km/h 74% 0.00 mm 0.00 W/m2
20:09 32.0 °C 27.0 °C 1007.3 hPa SSE 9 km/h 12 km/h 74% 0.00 mm 0.00 W/m2
20:14 32.0 °C 26.0 °C 1007.2 hPa SSE 7 km/h 8 km/h 74% 0.00 mm 0.00 W/m2
20:19 32.0 °C 26.0 °C 1007.3 hPa SSE 6 km/h 8 km/h 74% 0.00 mm 0.00 W/m2
20:24 32.0 °C 26.0 °C 1007.3 hPa SSE 8 km/h 8 km/h 74% 0.00 mm 0.00 W/m2
20:29 32.0 °C 27.0 °C 1007.3 hPa SSE 6 km/h 8 km/h 74% 0.00 mm 0.00 W/m2
20:34 32.0 °C 26.0 °C 1007.3 hPa SE 8 km/h 12 km/h 74% 0.00 mm 0.00 W/m2
20:39 32.0 °C 26.0 °C 1007.4 hPa SSE 6 km/h 8 km/h 74% 0.00 mm 0.00 W/m2
20:44 32.0 °C 26.0 °C 1007.4 hPa SE 9 km/h 12 km/h 74% 0.00 mm 0.00 W/m2
20:49 32.0 °C 26.0 °C 1007.3 hPa SE 6 km/h 8 km/h 74% 0.00 mm 0.00 W/m2
20:54 32.0 °C 26.0 °C 1007.4 hPa SSE 6 km/h 8 km/h 73% 0.00 mm 0.00 W/m2
20:59 32.0 °C 26.0 °C 1007.4 hPa SSE 6 km/h 8 km/h 74% 0.00 mm 0.00 W/m2
21:04 32.0 °C 26.0 °C 1007.5 hPa SSE 5 km/h 8 km/h 74% 0.00 mm 0.00 W/m2
21:09 32.0 °C 26.0 °C 1007.4 hPa SSE 7 km/h 8 km/h 74% 0.00 mm 0.00 W/m2
21:14 32.0 °C 27.0 °C 1007.4 hPa SE 8 km/h 8 km/h 75% 0.00 mm 0.00 W/m2
21:19 32.0 °C 27.0 °C 1007.5 hPa SE 10 km/h 12 km/h 75% 0.00 mm 0.00 W/m2
21:24 32.0 °C 27.0 °C 1007.4 hPa SSE 8 km/h 12 km/h 75% 0.00 mm 0.00 W/m2
21:29 31.0 °C 26.0 °C 1007.5 hPa SSE 9 km/h 12 km/h 75% 0.00 mm 0.00 W/m2
21:34 32.0 °C 27.0 °C 1007.5 hPa SSE 10 km/h 12 km/h 75% 0.00 mm 0.00 W/m2
21:39 31.0 °C 26.0 °C 1007.5 hPa SSE 7 km/h 8 km/h 75% 0.00 mm 0.00 W/m2
21:44 32.0 °C 27.0 °C 1007.5 hPa SSE 6 km/h 8 km/h 75% 0.00 mm 0.00 W/m2
21:49 32.0 °C 27.0 °C 1007.5 hPa SSE 6 km/h 8 km/h 75% 0.00 mm 0.00 W/m2
21:54 31.0 °C 27.0 °C 1007.5 hPa SSE 7 km/h 8 km/h 76% 0.00 mm 0.00 W/m2
21:59 31.0 °C 26.0 °C 1007.6 hPa SSE 6 km/h 8 km/h 75% 0.00 mm 0.00 W/m2
22:04 31.0 °C 26.0 °C 1007.6 hPa SSE 9 km/h 12 km/h 76% 0.00 mm 0.00 W/m2
22:09 31.0 °C 27.0 °C 1007.7 hPa SSE 10 km/h 12 km/h 76% 0.00 mm 0.00 W/m2
22:14 31.0 °C 27.0 °C 1007.7 hPa SE 9 km/h 12 km/h 76% 0.00 mm 0.00 W/m2
22:19 31.0 °C 27.0 °C 1007.5 hPa SE 7 km/h 12 km/h 77% 0.00 mm 0.00 W/m2
22:24 31.0 °C 27.0 °C 1007.6 hPa SSE 7 km/h 8 km/h 77% 0.00 mm 0.00 W/m2
22:29 31.0 °C 27.0 °C 1007.7 hPa SE 4 km/h 4 km/h 77% 0.00 mm 0.00 W/m2
22:34 31.0 °C 26.0 °C 1007.7 hPa SE 10 km/h 12 km/h 76% 0.00 mm 0.00 W/m2
22:39 31.0 °C 26.0 °C 1007.8 hPa SSE 9 km/h 12 km/h 76% 0.00 mm 0.00 W/m2
22:44 31.0 °C 26.0 °C 1007.7 hPa SSE 7 km/h 8 km/h 76% 0.00 mm 0.00 W/m2
22:49 31.0 °C 26.0 °C 1007.7 hPa SSE 9 km/h 12 km/h 76% 0.00 mm 0.00 W/m2
22:54 31.0 °C 26.0 °C 1007.7 hPa SSE 8 km/h 8 km/h 76% 0.00 mm 0.00 W/m2
22:59 31.0 °C 27.0 °C 1007.6 hPa SE 8 km/h 12 km/h 77% 0.00 mm 0.00 W/m2
23:04 31.0 °C 26.0 °C 1007.6 hPa SSE 10 km/h 12 km/h 77% 0.00 mm 0.00 W/m2
23:09 31.0 °C 26.0 °C 1007.5 hPa SSE 8 km/h 12 km/h 77% 0.00 mm 0.00 W/m2
23:14 31.0 °C 26.0 °C 1007.5 hPa SE 6 km/h 8 km/h 77% 0.00 mm 0.00 W/m2
23:19 31.0 °C 27.0 °C 1007.5 hPa SE 8 km/h 8 km/h 78% 0.00 mm 0.00 W/m2
23:24 31.0 °C 27.0 °C 1007.5 hPa SE 3 km/h 4 km/h 78% 0.00 mm 0.00 W/m2
23:29 31.0 °C 27.0 °C 1007.5 hPa SE 6 km/h 8 km/h 78% 0.00 mm 0.00 W/m2
23:34 31.0 °C 27.0 °C 1007.5 hPa SE 6 km/h 8 km/h 78% 0.00 mm 0.00 W/m2
23:39 31.0 °C 26.0 °C 1007.5 hPa SSE 9 km/h 12 km/h 78% 0.00 mm 0.00 W/m2
23:44 31.0 °C 27.0 °C 1007.5 hPa SSE 5 km/h 8 km/h 78% 0.00 mm 0.00 W/m2
23:49 31.0 °C 27.0 °C 1007.7 hPa SSE 5 km/h 8 km/h 78% 0.00 mm 0.00 W/m2
23:54 31.0 °C 26.0 °C 1007.7 hPa SSE 5 km/h 8 km/h 78% 0.00 mm 0.00 W/m2
23:59 31.0 °C 26.0 °C 1007.5 hPa SE 4 km/h 4 km/h 78% 0.00 mm 0.00 W/m2
PIMOHWEATHER Philippines
Compliments of Weather Underground - 2 mb